THY537 DFFD-GUCY

Flight info

Callsign THY537
Flight time N/A
Altitude 38000
Route ANIXA UG854 VOLNA UG854 EDBAL
Aircraft B38M/M-SADE1E2E3FGHIJ1M3RWYZ/LB1

Departure

Time N/A
Airport Ouagadougou Thomas Sankara International Airport (DFFD)

Arrival

Time 2026-05-03 21:11
Airport Ahmed Sékou Touré International Airport (GUCY)
Time Latitude Longitude Altitude Speed Heading
2026-05-03 20:15 10.66295 -7.78632 37921 ft 440 kts 262°
2026-05-03 20:15 10.65391 -7.84818 37918 ft 440 kts 262°
2026-05-03 20:16 10.64495 -7.90935 37924 ft 440 kts 262°
2026-05-03 20:16 10.63592 -7.97099 37923 ft 441 kts 262°
2026-05-03 20:17 10.62483 -8.03232 37924 ft 441 kts 259°
2026-05-03 20:17 10.61304 -8.09334 37931 ft 441 kts 259°
2026-05-03 20:18 10.60125 -8.15471 37928 ft 441 kts 259°
2026-05-03 20:18 10.58947 -8.21598 37930 ft 441 kts 260°
2026-05-03 20:19 10.57776 -8.27683 37934 ft 440 kts 260°
2026-05-03 20:19 10.56604 -8.33764 37935 ft 440 kts 260°
2026-05-03 20:20 10.55429 -8.39856 37940 ft 440 kts 260°
2026-05-03 20:20 10.54247 -8.45978 37939 ft 440 kts 260°
2026-05-03 20:21 10.53068 -8.52079 37937 ft 440 kts 260°
2026-05-03 20:21 10.51893 -8.58153 37941 ft 440 kts 260°
2026-05-03 20:22 10.50708 -8.64269 37933 ft 440 kts 260°
2026-05-03 20:22 10.49493 -8.70383 37932 ft 441 kts 259°
2026-05-03 20:23 10.48243 -8.76493 37929 ft 441 kts 259°
2026-05-03 20:23 10.47006 -8.82542 37936 ft 441 kts 259°
2026-05-03 20:24 10.45749 -8.88689 37944 ft 442 kts 259°
2026-05-03 20:24 10.44497 -8.94802 37942 ft 442 kts 259°
2026-05-03 20:25 10.43249 -9.00887 37946 ft 443 kts 259°
2026-05-03 20:25 10.41988 -9.07033 37941 ft 443 kts 259°
2026-05-03 20:26 10.40728 -9.13167 37945 ft 444 kts 259°
2026-05-03 20:26 10.39487 -9.19208 37940 ft 444 kts 259°
2026-05-03 20:27 10.38220 -9.25363 37940 ft 444 kts 259°
2026-05-03 20:27 10.36921 -9.31418 37940 ft 445 kts 259°
2026-05-03 20:28 10.35571 -9.37617 37941 ft 446 kts 259°
2026-05-03 20:28 10.34229 -9.43777 37938 ft 443 kts 259°
2026-05-03 20:29 10.32914 -9.49812 37936 ft 435 kts 258°
2026-05-03 20:29 10.31609 -9.55790 37934 ft 436 kts 258°
2026-05-03 20:30 10.30296 -9.61808 37936 ft 437 kts 258°
2026-05-03 20:30 10.28977 -9.67840 37932 ft 437 kts 258°
2026-05-03 20:31 10.27665 -9.73835 37933 ft 438 kts 258°
2026-05-03 20:31 10.26342 -9.79876 37936 ft 438 kts 258°
2026-05-03 20:32 10.25015 -9.85929 37936 ft 438 kts 258°
2026-05-03 20:32 10.23692 -9.91962 37942 ft 438 kts 258°
2026-05-03 20:33 10.22373 -9.97970 37939 ft 438 kts 258°
2026-05-03 20:33 10.21039 -10.04028 37938 ft 438 kts 258°
2026-05-03 20:34 10.19728 -10.09986 37943 ft 438 kts 258°
2026-05-03 20:34 10.18381 -10.16095 37942 ft 439 kts 258°
2026-05-03 20:35 10.17061 -10.22079 37945 ft 439 kts 258°
2026-05-03 20:35 10.15715 -10.28172 37949 ft 440 kts 258°
2026-05-03 20:36 10.14378 -10.34219 37950 ft 440 kts 258°
2026-05-03 20:36 10.13033 -10.40300 37951 ft 441 kts 258°
2026-05-03 20:37 10.11688 -10.46372 37952 ft 441 kts 258°
2026-05-03 20:37 10.10337 -10.52466 37960 ft 442 kts 258°
2026-05-03 20:38 10.08997 -10.58508 37956 ft 442 kts 258°
2026-05-03 20:38 10.07642 -10.64608 37959 ft 442 kts 258°
2026-05-03 20:39 10.06289 -10.70698 37958 ft 442 kts 258°
2026-05-03 20:39 10.05045 -10.76759 37963 ft 441 kts 262°
2026-05-03 20:40 10.04129 -10.82926 37963 ft 441 kts 262°
2026-05-03 20:40 10.03177 -10.89051 37965 ft 441 kts 261°
2026-05-03 20:41 10.02208 -10.95238 37969 ft 441 kts 262°
2026-05-03 20:41 10.01244 -11.01386 37973 ft 441 kts 261°
2026-05-03 20:42 10.00285 -11.07501 37970 ft 441 kts 261°
2026-05-03 20:42 9.99329 -11.13577 37969 ft 440 kts 261°
2026-05-03 20:43 9.98369 -11.19681 37966 ft 440 kts 261°
2026-05-03 20:43 9.97404 -11.25809 37965 ft 439 kts 261°
2026-05-03 20:44 9.96437 -11.31940 37964 ft 439 kts 261°
2026-05-03 20:44 9.95473 -11.38047 37965 ft 439 kts 261°
2026-05-03 20:45 9.94638 -11.44194 37957 ft 438 kts 263°
2026-05-03 20:45 9.93826 -11.50283 37787 ft 438 kts 263°
2026-05-03 20:45 9.93415 -11.53342 37459 ft 436 kts 263°
2026-05-03 20:46 9.93006 -11.56388 37142 ft 436 kts 263°
2026-05-03 20:46 9.92595 -11.59443 36823 ft 437 kts 263°
2026-05-03 20:46 9.92183 -11.62514 36507 ft 437 kts 263°
2026-05-03 20:46 9.91776 -11.65536 36198 ft 438 kts 263°
2026-05-03 20:47 9.91364 -11.68597 35897 ft 439 kts 263°
2026-05-03 20:47 9.90948 -11.71684 35587 ft 440 kts 263°
2026-05-03 20:47 9.90534 -11.74756 35293 ft 440 kts 263°
2026-05-03 20:47 9.90115 -11.77852 34994 ft 441 kts 263°
2026-05-03 20:48 9.89700 -11.80931 34702 ft 442 kts 263°
2026-05-03 20:48 9.89287 -11.83989 34417 ft 443 kts 263°
2026-05-03 20:48 9.88867 -11.87092 34098 ft 441 kts 263°
2026-05-03 20:48 9.88450 -11.90166 33263 ft 442 kts 263°
2026-05-03 20:49 9.88028 -11.93284 32334 ft 446 kts 262°
2026-05-03 20:49 9.87604 -11.96412 31401 ft 450 kts 262°
2026-05-03 20:49 9.87173 -11.99589 30463 ft 454 kts 262°
2026-05-03 20:49 9.86752 -12.02729 29514 ft 458 kts 263°
2026-05-03 20:50 9.86553 -12.05971 28881 ft 452 kts 266°
2026-05-03 20:50 9.86350 -12.09089 28348 ft 445 kts 266°
2026-05-03 20:50 9.86135 -12.12195 27825 ft 438 kts 266°
2026-05-03 20:50 9.85920 -12.15267 27318 ft 432 kts 266°
2026-05-03 20:51 9.85707 -12.18297 26814 ft 427 kts 266°
2026-05-03 20:51 9.85495 -12.21303 26224 ft 425 kts 266°
2026-05-03 20:51 9.85285 -12.24287 25624 ft 424 kts 266°
2026-05-03 20:51 9.85076 -12.27234 25056 ft 423 kts 266°
2026-05-03 20:52 9.84866 -12.30212 24547 ft 421 kts 266°
2026-05-03 20:52 9.84657 -12.33161 24035 ft 419 kts 266°
2026-05-03 20:52 9.84448 -12.36105 23521 ft 417 kts 266°
2026-05-03 20:52 9.84240 -12.39040 22945 ft 415 kts 266°
2026-05-03 20:53 9.84034 -12.41931 22417 ft 412 kts 266°
2026-05-03 20:53 9.83828 -12.44829 21882 ft 410 kts 266°
2026-05-03 20:53 9.83622 -12.47713 21376 ft 407 kts 266°
2026-05-03 20:53 9.83419 -12.50572 20873 ft 405 kts 265°
2026-05-03 20:54 9.83218 -12.53382 20398 ft 403 kts 265°
2026-05-03 20:54 9.82816 -12.58990 19453 ft 399 kts 265°
2026-05-03 20:54 9.82616 -12.61780 19008 ft 397 kts 265°
2026-05-03 20:55 9.82416 -12.64576 18549 ft 395 kts 265°
2026-05-03 20:55 9.82218 -12.67334 18086 ft 393 kts 265°
2026-05-03 20:55 9.82017 -12.70116 17588 ft 391 kts 265°
2026-05-03 20:55 9.81819 -12.72869 17089 ft 389 kts 265°
2026-05-03 20:56 9.81625 -12.75568 16630 ft 387 kts 265°
2026-05-03 20:56 9.81428 -12.78285 16150 ft 385 kts 265°
2026-05-03 20:56 9.81234 -12.80979 15698 ft 383 kts 265°
2026-05-03 20:56 9.81038 -12.83682 15212 ft 382 kts 265°
2026-05-03 20:57 9.80843 -12.86374 14799 ft 379 kts 265°
2026-05-03 20:57 9.80653 -12.88997 14415 ft 376 kts 265°
2026-05-03 20:57 9.80463 -12.91615 14178 ft 368 kts 265°
2026-05-03 20:57 9.80278 -12.94174 13967 ft 358 kts 265°
2026-05-03 20:58 9.80088 -12.96662 13755 ft 350 kts 262°
2026-05-03 20:58 9.79411 -12.99000 13390 ft 343 kts 244°
2026-05-03 20:58 9.78483 -13.01202 12937 ft 343 kts 245°
2026-05-03 20:58 9.77556 -13.03426 12567 ft 341 kts 245°
2026-05-03 20:59 9.76630 -13.05638 12175 ft 339 kts 244°
2026-05-03 20:59 9.75755 -13.07718 11902 ft 334 kts 245°
2026-05-03 20:59 9.74854 -13.09858 11705 ft 326 kts 244°
2026-05-03 20:59 9.74271 -13.11247 11493 ft 324 kts 244°
2026-05-03 21:00 9.73383 -13.13354 11142 ft 322 kts 244°
2026-05-03 21:00 9.72801 -13.14734 10924 ft 321 kts 244°
2026-05-03 21:00 9.71631 -13.17510 10463 ft 320 kts 244°
2026-05-03 21:00 9.70758 -13.19581 10106 ft 319 kts 244°
2026-05-03 21:01 9.69897 -13.21624 9777 ft 317 kts 244°
2026-05-03 21:01 9.69030 -13.23678 9426 ft 314 kts 244°
2026-05-03 21:01 9.68174 -13.25705 9037 ft 314 kts 244°
2026-05-03 21:01 9.67319 -13.27734 8792 ft 309 kts 245°
2026-05-03 21:02 9.66478 -13.29728 8485 ft 307 kts 245°
2026-05-03 21:02 9.65647 -13.31699 8033 ft 301 kts 245°
2026-05-03 21:02 9.64824 -13.33650 7471 ft 298 kts 245°
2026-05-03 21:02 9.64012 -13.35572 6955 ft 294 kts 245°
2026-05-03 21:03 9.63227 -13.37439 6451 ft 289 kts 245°
2026-05-03 21:03 9.62648 -13.39370 5889 ft 287 kts 266°
2026-05-03 21:03 9.63045 -13.41305 5368 ft 282 kts 298°
2026-05-03 21:03 9.64326 -13.42775 4962 ft 275 kts 322°
2026-05-03 21:04 9.65827 -13.43991 4836 ft 278 kts 320°
2026-05-03 21:04 9.67194 -13.45257 4746 ft 259 kts 308°
2026-05-03 21:04 9.67923 -13.46811 4700 ft 236 kts 281°
2026-05-03 21:04 9.68110 -13.48407 4682 ft 225 kts 266°
2026-05-03 21:05 9.67543 -13.49829 4541 ft 217 kts 223°
2026-05-03 21:05 9.66228 -13.50471 4422 ft 211 kts 182°
2026-05-03 21:05 9.64860 -13.50036 4320 ft 210 kts 139°
2026-05-03 21:05 9.64164 -13.48767 4211 ft 212 kts 97°
2026-05-03 21:06 9.64510 -13.47336 4114 ft 216 kts 56°
2026-05-03 21:06 9.65718 -13.46485 3991 ft 219 kts 17°
2026-05-03 21:06 9.67218 -13.46524 3868 ft 217 kts 336°
2026-05-03 21:06 9.68347 -13.47476 3757 ft 210 kts 304°
2026-05-03 21:07 9.68747 -13.48820 3516 ft 200 kts 263°
2026-05-03 21:07 9.68172 -13.50085 3021 ft 198 kts 227°
2026-05-03 21:07 9.67156 -13.50968 2493 ft 186 kts 214°
2026-05-03 21:07 9.66106 -13.51708 2139 ft 176 kts 214°
2026-05-03 21:08 9.65218 -13.52413 1853 ft 157 kts 223°
2026-05-03 21:08 9.64515 -13.53252 1548 ft 152 kts 229°
2026-05-03 21:08 9.63828 -13.54034 1434 ft 149 kts 226°
2026-05-03 21:08 9.63133 -13.54838 1407 ft 150 kts 227°
2026-05-03 21:09 9.62419 -13.55618 1225 ft 143 kts 225°
2026-05-03 21:09 9.61755 -13.56372 1055 ft 145 kts 231°
2026-05-03 21:09 9.61114 -13.57159 908 ft 150 kts 229°
2026-05-03 21:09 9.60435 -13.57949 725 ft 148 kts 229°
2026-05-03 21:10 9.59749 -13.58745 502 ft 154 kts 232°
2026-05-03 21:10 9.59054 -13.59579 286 ft 155 kts 233°
2026-05-03 21:10 9.58365 -13.60401 72 ft 151 kts 231°
2026-05-03 21:10 9.57777 -13.61097 64 ft 108 kts 230°
2026-05-03 21:11 9.57445 -13.61487 68 ft 48 kts 230°
2026-05-03 21:11 9.57282 -13.61678 72 ft 35 kts 228°
2026-05-03 21:11 9.57151 -13.61828 71 ft 23 kts 230°
2026-05-03 21:11 9.57158 -13.61944 71 ft 16 kts 323°
2026-05-03 21:12 9.57240 -13.61996 73 ft 7 kts
2026-05-03 21:12 9.57290 -13.61968 77 ft 10 kts 51°
2026-05-03 21:12 9.57336 -13.61906 73 ft 13 kts 54°
2026-05-03 21:12 9.57386 -13.61858 73 ft 8 kts
2026-05-03 21:13 9.57431 -13.61886 73 ft 9 kts 309°
2026-05-03 21:13 9.57461 -13.61917 76 ft 3 kts 324°
2026-05-03 21:13 9.57464 -13.61920 76 ft 0 kts 317°